Вернуться в каталог

CZ-6A DEB

АктивенSSO
NORAD 56611·DEBRIS·🇨🇳 China

Запущен Nov 11, 2022 с Taiyuan Satellite Launch Center

Loading…

Ближайшие Пролёты (ближайшие 24 часа)

TLE

СвежийSource: Space-Track

Эпоха: Sep 14, 2026, 23:03 UTC

1 56611U 22151AEK 26257.96073734  .00000058  00000-0  56030-4 0  9992
2 56611  98.8303 254.1595 0043344  82.5072 278.1021 14.10700104174602

Отслеживайте CZ-6A DEB в реальном времени с AllMySat

Download on the App Store